Weather History for Cheboygan, MI

Change the Weather History Date:

Monday, January 21, 2013

  Actual Average (KPLN) Record (KPLN)
Temperature  
Mean Temperature 6 °F -  
Max Temperature 10 °F 27 °F 44 °F (1957)
Min Temperature 1 °F 4 °F -31 °F (1970)
Degree Days  
Heating Degree Days 60    
Moisture  
Dew Point 2 °F    
Average Humidity 80    
Maximum Humidity 89    
Minimum Humidity 61    
Precipitation  
Precipitation 0.00 in - - ()
Sea Level Pressure  
Sea Level Pressure 29.93 in    
Wind  
Wind Speed 7 mph (West)    
Max Wind Speed 18 mph    
Max Gust Speed 25 mph    
Visibility 3 miles    
Events Snow    
Averages and records for this station are not official NWS values.
T = Trace of Precipitation, MM = Missing Value Source: NWS Daily Summary

Daily Weather History Graph

Daily Weather History Graph

Search for Another Location

Airport:

Trip Planner

Search our weather history database for the weather conditions in past years. The results will help you decide how hot, cold, wet, or windy it might be!

Date:

Astronomy

Jan. 21, 2013 Rise Set
Actual Time 8:10 AM EST 5:29 PM EST
Civil Twilight 7:37 AM EST 6:01 PM EST
Nautical Twilight 7:01 AM EST 6:38 PM EST
Astronomical Twilight 6:26 AM EST 7:13 PM EST
Moon 1:07 PM EST (1/21) 3:38 AM EST (1/21)
Length of Visible Light 10h 23m
Length of Day
9h 18m
Waxing Gibbous, 75% of the Moon is Illuminated
Jan 21
Waxing Gibbous
Jan 26
Full
Feb 3
Last Quarter
Feb 10
New
Feb 17
First Quarter

Hourly Weather History & Observations

Time (EST) Temp. Windchill Dew Point Humidity Pressure Visibility Wind Dir Wind Speed Gust Speed Precip Events Conditions
12:15 AM 7.9 °F 1.2 °F -0.6 °F 68% 30.03 in 10.0 mi WSW 3.5 mph - N/A   Mostly Cloudy
12:35 AM 7.0 °F 0.1 °F -1.1 °F 69% 30.03 in 10.0 mi SSW 3.5 mph - N/A   Mostly Cloudy
1:15 AM 6.6 °F -2.2 °F -0.4 °F 73% 30.01 in 10.0 mi SW 4.6 mph - N/A   Overcast
1:35 AM 7.3 °F -1.3 °F -0.0 °F 72% 30.00 in 10.0 mi SW 4.6 mph - N/A   Overcast
2:36 AM 8.4 °F -0.1 °F 4.8 °F 85% 30.00 in 2.0 mi South 4.6 mph - N/A Snow Light Snow
2:55 AM 8.6 °F 0.1 °F 5.4 °F 87% 29.99 in 2.0 mi SSW 4.6 mph - N/A Snow Light Snow
3:15 AM 9.0 °F 0.6 °F 5.9 °F 87% 29.99 in 2.0 mi SSW 4.6 mph - N/A Snow Light Snow
3:35 AM 9.0 °F 2.4 °F 5.9 °F 87% 29.98 in 1.2 mi SSW 3.5 mph - N/A Snow Light Snow
3:55 AM 9.1 °F 2.6 °F 6.1 °F 87% 29.97 in 2.0 mi South 3.5 mph - N/A Snow Light Snow
4:15 AM 9.3 °F 2.8 °F 6.3 °F 87% 29.96 in 1.8 mi SSW 3.5 mph - N/A Snow Light Snow
4:35 AM 9.3 °F 2.8 °F 6.4 °F 88% 29.95 in 1.5 mi SSW 3.5 mph - N/A Snow Light Snow
4:55 AM 9.1 °F 2.6 °F 6.3 °F 88% 29.94 in 1.5 mi SW 3.5 mph - N/A Snow Light Snow
5:55 AM 9.5 °F 3.0 °F 6.4 °F 87% 29.93 in 2.5 mi SSW 3.5 mph - N/A Snow Light Snow
6:15 AM 9.5 °F -0.3 °F 5.5 °F 84% 29.92 in 4.0 mi SW 5.8 mph - N/A   Overcast
6:35 AM 9.1 °F 2.6 °F 5.0 °F 83% 29.92 in 4.0 mi SW 3.5 mph - N/A   Overcast
6:55 AM 9.1 °F - 4.8 °F 83% 29.92 in 5.0 mi Calm Calm - N/A Snow Light Snow
7:15 AM 9.0 °F - 5.4 °F 85% 29.91 in 5.0 mi Calm Calm - N/A   Overcast
7:35 AM 9.0 °F - 5.9 °F 87% 29.91 in 4.0 mi Calm Calm - N/A Snow Light Snow
7:55 AM 9.0 °F - 5.9 °F 87% 29.90 in 1.8 mi Calm Calm - N/A Snow Light Snow
8:15 AM 8.8 °F - 5.9 °F 88% 29.90 in 0.8 mi Calm Calm - N/A Snow Light Snow
8:35 AM 8.6 °F - 5.7 °F 88% 29.90 in 3.0 mi Calm Calm - N/A Snow Light Snow
8:55 AM 8.6 °F - 5.9 °F 89% 29.90 in 2.5 mi Calm Calm - N/A Snow Light Snow
9:15 AM 8.6 °F - 5.7 °F 88% 29.89 in 2.0 mi Calm Calm - N/A   Overcast
9:36 AM 9.1 °F 2.6 °F 5.7 °F 86% 29.89 in 1.5 mi SW 3.5 mph - N/A Snow Light Snow
9:55 AM 9.5 °F 1.2 °F 4.8 °F 81% 29.89 in 7.0 mi West 4.6 mph - N/A   Overcast
10:15 AM 10.9 °F -3.4 °F 3.2 °F 71% 29.89 in 10.0 mi West 11.5 mph 17.3 mph N/A   Overcast
10:55 AM 10.0 °F -5.2 °F 0.9 °F 66% 29.89 in 10.0 mi West 12.7 mph 16.1 mph N/A   Mostly Cloudy
11:15 AM 10.8 °F -6.2 °F 4.5 °F 76% 29.89 in 1.2 mi West 16.1 mph 21.9 mph N/A Snow Light Snow
11:35 AM 10.8 °F -6.2 °F 4.1 °F 75% 29.88 in 2.5 mi West 16.1 mph 24.2 mph N/A   Haze
11:55 AM 10.0 °F -7.1 °F 3.9 °F 76% 29.88 in 1.5 mi West 16.1 mph 21.9 mph N/A Snow Light Snow
12:15 PM 10.2 °F -6.9 °F 3.4 °F 74% 29.88 in 1.2 mi WNW 16.1 mph 21.9 mph N/A Snow Light Snow
12:35 PM 10.2 °F -5.0 °F 2.8 °F 72% 29.87 in 1.8 mi West 12.7 mph 24.2 mph N/A Snow Light Snow
12:55 PM 10.4 °F -6.6 °F 0.3 °F 64% 29.86 in 7.0 mi West 16.1 mph 20.7 mph N/A   Overcast
1:15 PM 10.4 °F -6.0 °F -0.8 °F 61% 29.86 in 7.0 mi West 15.0 mph 21.9 mph N/A   Overcast
1:35 PM 10.4 °F -4.8 °F -0.8 °F 61% 29.86 in 5.0 mi West 12.7 mph - N/A   Haze
1:55 PM 10.0 °F -6.5 °F 2.5 °F 72% 29.86 in 3.0 mi WNW 15.0 mph 19.6 mph N/A   Haze
2:15 PM 9.1 °F -7.0 °F 4.6 °F 82% 29.86 in 0.5 mi West 13.8 mph 24.2 mph N/A Snow Light Snow
2:35 PM 9.0 °F -9.5 °F 4.8 °F 83% 29.87 in 0.5 mi WNW 18.4 mph 24.2 mph N/A Snow Light Snow
2:55 PM 8.4 °F -9.7 °F 3.7 °F 81% 29.87 in 0.5 mi WNW 17.3 mph 24.2 mph N/A Snow Light Snow
3:15 PM 8.6 °F -10.0 °F 3.6 °F 80% 29.87 in 0.8 mi West 18.4 mph 23.0 mph N/A Snow Light Snow
3:36 PM 8.6 °F -7.7 °F 3.9 °F 81% 29.88 in 1.2 mi West 13.8 mph 18.4 mph N/A Snow Light Snow
3:55 PM 8.4 °F -7.3 °F 3.2 °F 79% 29.88 in 1.0 mi West 12.7 mph 19.6 mph N/A Snow Light Snow
4:15 PM 8.2 °F -9.4 °F 2.5 °F 77% 29.89 in 1.0 mi West 16.1 mph 21.9 mph N/A Snow Light Snow
4:35 PM 7.9 °F -9.3 °F 2.8 °F 80% 29.89 in 1.0 mi West 15.0 mph 20.7 mph N/A Snow Light Snow
4:55 PM 7.5 °F -9.1 °F 2.7 °F 81% 29.90 in 1.0 mi West 13.8 mph 23.0 mph N/A Snow Light Snow
5:15 PM 7.5 °F -10.9 °F 2.5 °F 80% 29.90 in 0.8 mi West 17.3 mph 25.3 mph N/A Snow Light Snow
5:35 PM 7.2 °F -10.8 °F 2.8 °F 82% 29.91 in 0.8 mi West 16.1 mph 20.7 mph N/A Snow Light Snow
6:15 PM 6.8 °F -9.3 °F 2.3 °F 82% 29.92 in 1.5 mi West 12.7 mph 18.4 mph N/A Snow Light Snow
6:35 PM 6.4 °F -10.5 °F 2.3 °F 83% 29.93 in 1.2 mi West 13.8 mph - N/A Snow Light Snow
6:55 PM 5.9 °F -10.5 °F 1.9 °F 84% 29.93 in 1.8 mi West 12.7 mph 19.6 mph N/A Snow Light Snow
7:14 PM 5.9 °F -12.4 °F 0.9 °F 80% 29.94 in 1.5 mi West 16.1 mph 23.0 mph N/A Snow Light Snow
7:55 PM 5.0 °F -13.6 °F -1.5 °F 75% 29.95 in 3.0 mi WNW 16.1 mph 25.3 mph N/A   Haze
8:15 PM 4.8 °F -14.4 °F -0.2 °F 80% 29.96 in 1.2 mi West 17.3 mph 25.3 mph N/A Snow Light Snow
8:35 PM 4.1 °F -13.4 °F -0.8 °F 80% 29.96 in 1.2 mi WNW 13.8 mph 24.2 mph N/A Snow Light Snow
8:56 PM 3.6 °F -15.4 °F -1.3 °F 80% 29.97 in 1.0 mi WNW 16.1 mph 20.7 mph N/A Snow Light Snow
9:15 PM 3.2 °F -16.5 °F -1.3 °F 82% 29.97 in 1.2 mi WNW 17.3 mph 23.0 mph N/A Snow Light Snow
9:35 PM 2.8 °F -16.4 °F -1.7 °F 81% 29.98 in 1.2 mi WNW 16.1 mph 23.0 mph N/A Snow Light Snow
9:56 PM 2.5 °F -14.8 °F -2.2 °F 81% 29.98 in 1.5 mi WNW 12.7 mph 20.7 mph N/A Snow Light Snow
10:15 PM 2.1 °F -13.6 °F -2.4 °F 81% 29.98 in 1.5 mi WNW 10.4 mph 21.9 mph N/A Snow Light Snow
10:35 PM 1.6 °F -15.9 °F -4.0 °F 77% 29.98 in 5.0 mi West 12.7 mph - N/A   Haze
10:55 PM 1.2 °F -14.7 °F -4.0 °F 79% 29.98 in 5.0 mi West 10.4 mph - N/A   Haze
11:15 PM 1.0 °F -14.0 °F -4.4 °F 78% 29.99 in 5.0 mi West 9.2 mph - N/A   Haze
11:35 PM 1.0 °F -14.0 °F -4.2 °F 79% 29.99 in 5.0 mi West 9.2 mph - N/A   Haze
11:55 PM 1.4 °F -15.3 °F -3.8 °F 79% 29.99 in 3.0 mi West 11.5 mph - N/A   Haze